Regional Weather Roundup
Issued by NWS

Home | Current Version | Previous Version | Text Only | Print | Product List | Glossary On
Versions: 1 2 3 4 5 6 7 8 9 10 11 12 13 14 15 16 17 18 19 20 21 22 23 24 25 26 27 28 29 30 31 32 33 34 35 36 37 38 39 40 41 42 43 44 45 46 47 48 49 50
000
ASCA42 TJSJ 291010
RWRPR
PUERTO RICO/U.S. VIRGIN ISLANDS HOURLY WEATHER ROUNDUP
NATIONAL WEATHER SERVICE SAN JUAN PR
600 AM AST WED JUL 29 2015

PRZ001-004-291100-
PUERTO RICO

CITY           SKY/WX    TMP DP  RH WIND       PRES   REMARKS
SAN JUAN LMM   MOCLDY    81  73  78 SE3       30.02R
PONCE          PTCLDY    75  70  83 CALM      29.97
$$

PRZ006-007-291100-
U.S. VIRGIN ISLANDS

CITY           SKY/WX    TMP DP  RH WIND       PRES   REMARKS
CHARLOTTE AMA  CLEAR     81  73  78 E5        30.02R
CHRISTIANSTED  PTCLDY    81  73  78 E12       30.02R
$$

HOURLY WEATHER ROUNDUP FOR THE NEWS MEDIA

CITY           SKY/WX    TMP DP  RH WIND       PRES   REMARKS
ORLANDO        CLOUDY    76  76 100 W3        29.94S
NEW YORK       PTCLDY    75  72  90 SW3       29.97R FOG
NEWARK         PTCLDY    76  67  73 SW6       29.96R
CHICAGO        CLOUDY    76  70  82 SW6       29.92F
HARTFORD       CLEAR     62  62 100 CALM      29.94S FOG
BOSTON         PTCLDY    73  67  81 W6        29.95R
DALLAS         CLEAR     83  68  60 S8        29.99R
PHILADELPHIA   PTCLDY    77  71  82 CALM      29.98
LOS ANGELES    CLOUDY    66  63  90 NW5       29.90F
WASHINGTON DC  CLOUDY    71  71 100 CALM      30.00S FOG


USA.gov is the U.S. government's official web portal to all federal, state and local government web resources and services.